Powrót do katalogu

STARLINK-35261

AktywnyŁącznośćSSO
NORAD 65595·PAYLOAD·🇺🇸 United States

Wystrzelony Sep 13, 2025 z Cape Canaveral Space Force Station

Loading…

Następne Przeloty (najbliższe 24 godziny)

TLE

ŚwieżeSource: CelesTrak SupGP

Epoka: Sep 14, 2026, 22:59 UTC

1 65595C 25207D   26257.95812500  .01410300  00000+0  84939-1 0  2577
2 65595  97.2846 320.6869 0001220 103.9027 358.0928 15.10180059    15

Śledź STARLINK-35261 w czasie rzeczywistym z AllMySat

Download on the App Store